WXM80 ListenWXM80 Stop

You find our weather info also at:

UK Metoffice

WeatherCloud

Weather Underground

Northeastern Weather Network

AWEKAS

Citizen Weather Observer Program (CWOP)

HAMweather, WeatherForYou, PWS Weather


Weather Underground History page Text

Daily Summary for May 11, 2016 Units:  English    Metric   Both
« Previous Day
Next Day »
Daily Weekly Monthly Yearly Custom
  High: Low: Average:
Temperature: 78.7 °F 45.4 °F 62.6 °F
Dew Point: 49.0 °F 37.8 °F 43.5 °F
Humidity: 94 % 28 % 54 %
Wind Speed: 5.6 mph 0.0 mph 1.6 mph
Wind Gust: 10.4 mph - -
Wind:- - South
Pressure: 30.18 in 30.06 in -
Precipitation: 0.00 in    
Historical Graphs
 
 
Tabular Data for May 11, 2016
Time Temperature Dew Point Pressure Wind Wind Speed Wind Gust Humidity Rainfall Rate (Hourly)
00:04 53.2 °F 45.1 °F 30.14 in SW 0.9 mph 3.5 mph 74 % 0.00 in
00:09 53.2 °F 45.5 °F 30.14 in WSW 2.1 mph 4.0 mph 75 % 0.00 in
00:14 53.2 °F 45.5 °F 30.14 in WSW 1.4 mph 4.0 mph 75 % 0.00 in
00:19 53.1 °F 45.4 °F 30.14 in SW 2.6 mph 5.8 mph 75 % 0.00 in
00:29 53.0 °F 45.6 °F 30.14 in SW 1.0 mph 3.5 mph 76 % 0.00 in
00:35 53.0 °F 45.6 °F 30.14 in WSW 1.3 mph 4.6 mph 76 % 0.00 in
00:40 52.9 °F 45.9 °F 30.14 in WSW 2.2 mph 2.3 mph 77 % 0.00 in
00:45 52.9 °F 45.9 °F 30.14 in SW 3.1 mph 4.6 mph 77 % 0.00 in
00:50 52.8 °F 45.8 °F 30.15 in WSW 2.1 mph 3.5 mph 77 % 0.00 in
00:55 52.8 °F 45.8 °F 30.15 in SW 1.7 mph 3.5 mph 77 % 0.00 in
01:00 52.8 °F 45.8 °F 30.14 in SW 2.2 mph 4.6 mph 77 % 0.00 in
01:05 52.8 °F 46.1 °F 30.14 in West 1.8 mph 4.6 mph 78 % 0.00 in
01:10 52.7 °F 46.0 °F 30.14 in SW 2.8 mph 3.5 mph 78 % 0.00 in
01:15 52.7 °F 46.0 °F 30.15 in SW 1.7 mph 3.5 mph 78 % 0.00 in
01:20 52.6 °F 45.9 °F 30.14 in SW 2.1 mph 4.0 mph 78 % 0.00 in
01:26 52.5 °F 45.8 °F 30.14 in SW 1.3 mph 3.5 mph 78 % 0.00 in
01:31 52.4 °F 45.7 °F 30.14 in SW 0.3 mph 2.3 mph 78 % 0.00 in
01:36 52.3 °F 46.0 °F 30.14 in SW 0.9 mph 3.0 mph 79 % 0.00 in
01:46 52.0 °F 45.7 °F 30.14 in WSW 2.0 mph 4.6 mph 79 % 0.00 in
01:51 51.9 °F 45.9 °F 30.14 in West 2.0 mph 4.6 mph 80 % 0.00 in
01:56 51.8 °F 45.8 °F 30.14 in West 1.8 mph 3.5 mph 80 % 0.00 in
02:01 51.7 °F 45.7 °F 30.14 in WNW 0.5 mph 2.3 mph 80 % 0.00 in
02:06 51.6 °F 45.6 °F 30.14 in WSW 0.9 mph 2.3 mph 80 % 0.00 in
02:12 51.5 °F 45.9 °F 30.13 in WSW 0.7 mph 2.3 mph 81 % 0.00 in
02:17 51.4 °F 45.8 °F 30.14 in WSW 1.3 mph 2.3 mph 81 % 0.00 in
02:22 51.3 °F 45.7 °F 30.14 in WSW 2.7 mph 3.5 mph 81 % 0.00 in
02:27 51.3 °F 46.0 °F 30.14 in WSW 2.9 mph 5.0 mph 82 % 0.00 in
02:32 51.2 °F 45.9 °F 30.14 in SW 1.6 mph 3.5 mph 82 % 0.00 in
02:37 51.2 °F 45.9 °F 30.14 in SW 0.3 mph 3.5 mph 82 % 0.00 in
02:42 51.1 °F 45.8 °F 30.14 in Calm   2.3 mph 82 % 0.00 in
02:47 50.9 °F 45.3 °F 30.14 in Calm     81 % 0.00 in
02:52 50.7 °F 45.1 °F 30.14 in Calm     81 % 0.00 in
02:57 50.6 °F 45.0 °F 30.14 in SSE 0.8 mph 3.0 mph 81 % 0.00 in
03:03 50.4 °F 45.1 °F 30.14 in WSW 1.1 mph 3.5 mph 82 % 0.00 in
03:13 50.1 °F 45.1 °F 30.14 in WSW 1.3 mph 3.5 mph 83 % 0.00 in
03:18 50.0 °F 45.0 °F 30.14 in WSW 0.7 mph 2.3 mph 83 % 0.00 in
03:23 49.9 °F 44.9 °F 30.14 in WSW 1.9 mph 3.5 mph 83 % 0.00 in
03:28 49.7 °F 45.1 °F 30.14 in WSW 0.9 mph 2.3 mph 84 % 0.00 in
03:33 49.5 °F 44.9 °F 30.14 in WSW 0.9 mph 2.0 mph 84 % 0.00 in
03:38 49.3 °F 45.0 °F 30.14 in WSW 0.3 mph 1.2 mph 85 % 0.00 in
03:43 49.2 °F 44.9 °F 30.14 in Calm     85 % 0.00 in
03:48 49.1 °F 44.8 °F 30.14 in WSW 0.1 mph 1.2 mph 85 % 0.00 in
03:54 48.9 °F 44.6 °F 30.14 in WSW 1.6 mph 2.3 mph 85 % 0.00 in
03:59 48.8 °F 44.8 °F 30.14 in Calm   1.2 mph 86 % 0.00 in
04:04 48.7 °F 44.7 °F 30.15 in Calm     86 % 0.00 in
04:09 48.6 °F 44.3 °F 30.15 in WSW 2.1 mph 3.5 mph 85 % 0.00 in
04:14 48.4 °F 44.4 °F 30.15 in SW 1.1 mph 2.3 mph 86 % 0.00 in
04:19 48.2 °F 44.2 °F 30.15 in Calm   1.2 mph 86 % 0.00 in
04:24 48.1 °F 44.1 °F 30.15 in SW 1.2 mph 2.3 mph 86 % 0.00 in
04:29 47.9 °F 44.2 °F 30.15 in SW 1.1 mph 3.5 mph 87 % 0.00 in
04:34 47.8 °F 44.1 °F 30.15 in Calm     87 % 0.00 in
04:39 47.7 °F 44.0 °F 30.15 in Calm     87 % 0.00 in
04:45 47.5 °F 43.8 °F 30.15 in Calm     87 % 0.00 in
04:50 47.4 °F 43.4 °F 30.14 in Calm     86 % 0.00 in
04:55 47.2 °F 43.5 °F 30.14 in Calm     87 % 0.00 in
05:00 47.0 °F 43.3 °F 30.15 in SW 0.3 mph 1.2 mph 87 % 0.00 in
05:10 46.7 °F 43.3 °F 30.14 in Calm   1.0 mph 88 % 0.00 in
05:15 46.5 °F 43.4 °F 30.14 in SW 0.1 mph 1.0 mph 89 % 0.00 in
05:20 46.4 °F 43.3 °F 30.15 in SW 0.5 mph 2.3 mph 89 % 0.00 in
05:25 46.2 °F 43.1 °F 30.15 in Calm     89 % 0.00 in
05:30 46.1 °F 43.0 °F 30.15 in Calm     89 % 0.00 in
05:36 46.0 °F 42.9 °F 30.15 in Calm     89 % 0.00 in
05:41 45.9 °F 42.8 °F 30.15 in Calm     89 % 0.00 in
05:46 45.8 °F 42.7 °F 30.15 in Calm     89 % 0.00 in
05:51 45.6 °F 42.5 °F 30.15 in Calm     89 % 0.00 in
05:56 45.6 °F 42.8 °F 30.15 in Calm   1.2 mph 90 % 0.00 in
06:01 45.5 °F 42.7 °F 30.15 in Calm     90 % 0.00 in
06:06 45.4 °F 42.6 °F 30.15 in Calm   1.2 mph 90 % 0.00 in
06:11 45.4 °F 42.6 °F 30.15 in Calm     90 % 0.00 in
06:16 45.4 °F 42.6 °F 30.15 in Calm     90 % 0.00 in
06:21 45.4 °F 42.9 °F 30.15 in Calm     91 % 0.00 in
06:27 45.6 °F 43.4 °F 30.16 in Calm     92 % 0.00 in
06:37 46.2 °F 44.3 °F 30.16 in SW 0.4 mph 2.3 mph 93 % 0.00 in
06:42 46.7 °F 45.1 °F 30.16 in Calm     94 % 0.00 in
06:47 47.2 °F 45.6 °F 30.17 in Calm     94 % 0.00 in
06:52 47.8 °F 46.2 °F 30.17 in Calm     94 % 0.00 in
06:57 48.4 °F 46.8 °F 30.17 in SW 0.9 mph 2.3 mph 94 % 0.00 in
07:02 49.2 °F 47.5 °F 30.17 in Calm     94 % 0.00 in
07:07 50.3 °F 48.6 °F 30.17 in Calm     94 % 0.00 in
07:12 51.0 °F 49.0 °F 30.17 in Calm     93 % 0.00 in
07:18 51.6 °F 48.2 °F 30.17 in ENE 0.2 mph 1.2 mph 88 % 0.00 in
07:23 52.4 °F 47.7 °F 30.17 in ENE 0.4 mph 2.3 mph 84 % 0.00 in
07:33 53.9 °F 46.5 °F 30.17 in NW 0.1 mph 1.2 mph 76 % 0.00 in
07:38 54.5 °F 45.3 °F 30.17 in West 1.7 mph 3.5 mph 71 % 0.00 in
07:43 55.1 °F 46.2 °F 30.17 in West 0.4 mph 2.0 mph 72 % 0.00 in
07:48 55.5 °F 45.5 °F 30.17 in West 0.1 mph 1.2 mph 69 % 0.00 in
07:53 55.9 °F 46.6 °F 30.17 in Calm   1.2 mph 71 % 0.00 in
07:58 56.6 °F 46.5 °F 30.17 in West 0.3 mph 1.0 mph 69 % 0.00 in
08:03 57.1 °F 46.2 °F 30.17 in Calm   1.2 mph 67 % 0.00 in
08:09 57.7 °F 46.4 °F 30.17 in West 0.4 mph 1.2 mph 66 % 0.00 in
08:19 58.5 °F 42.8 °F 30.17 in NW 0.7 mph 2.3 mph 56 % 0.00 in
08:24 59.0 °F 45.6 °F 30.17 in NNE 0.9 mph 4.0 mph 61 % 0.00 in
08:29 59.3 °F 44.1 °F 30.17 in NNE 1.8 mph 3.5 mph 57 % 0.00 in
08:34 59.6 °F 42.9 °F 30.17 in NE 0.1 mph 1.0 mph 54 % 0.00 in
08:39 59.8 °F 44.1 °F 30.17 in NE 0.4 mph 2.3 mph 56 % 0.00 in
08:44 60.0 °F 42.8 °F 30.18 in NE 1.4 mph 2.3 mph 53 % 0.00 in
08:49 60.3 °F 44.1 °F 30.17 in NE 2.4 mph 3.5 mph 55 % 0.00 in
08:54 60.6 °F 41.8 °F 30.17 in NE 0.8 mph 3.5 mph 50 % 0.00 in
09:00 61.1 °F 44.8 °F 30.17 in NE 0.5 mph 2.3 mph 55 % 0.00 in
09:05 61.4 °F 43.1 °F 30.17 in NE 0.3 mph 2.0 mph 51 % 0.00 in
09:15 62.2 °F 43.8 °F 30.17 in NE 1.2 mph 2.3 mph 51 % 0.00 in
09:20 62.6 °F 43.7 °F 30.17 in NE 1.2 mph 2.3 mph 50 % 0.00 in
09:25 63.0 °F 43.5 °F 30.17 in NE 0.7 mph 2.3 mph 49 % 0.00 in
09:30 63.1 °F 41.4 °F 30.17 in NE 1.2 mph 3.5 mph 45 % 0.00 in
09:35 63.0 °F 40.7 °F 30.17 in NE 1.6 mph 3.5 mph 44 % 0.00 in
09:40 63.3 °F 43.3 °F 30.17 in NE 0.1 mph 1.2 mph 48 % 0.00 in
09:51 64.2 °F 42.4 °F 30.17 in NNE 1.9 mph 2.3 mph 45 % 0.00 in
09:56 64.9 °F 44.7 °F 30.17 in NE 0.3 mph 2.3 mph 48 % 0.00 in
10:01 66.3 °F 46.0 °F 30.17 in NE 0.6 mph 2.3 mph 48 % 0.00 in
10:06 67.3 °F 43.4 °F 30.17 in North 0.1 mph 2.3 mph 42 % 0.00 in
10:11 68.1 °F 44.7 °F 30.17 in North 1.1 mph 2.3 mph 43 % 0.00 in
10:16 68.9 °F 46.7 °F 30.17 in North 0.9 mph 2.3 mph 45 % 0.00 in
10:21 69.8 °F 45.7 °F 30.17 in North 0.5 mph 3.0 mph 42 % 0.00 in
10:26 70.2 °F 46.0 °F 30.16 in North 1.2 mph 2.3 mph 42 % 0.00 in
10:31 70.3 °F 44.8 °F 30.16 in NE 0.8 mph 2.3 mph 40 % 0.00 in
10:36 70.2 °F 42.7 °F 30.16 in ENE 3.6 mph 4.6 mph 37 % 0.00 in
10:42 69.5 °F 41.4 °F 30.16 in ENE 2.0 mph 6.9 mph 36 % 0.00 in
10:47 69.3 °F 43.3 °F 30.16 in ENE 3.3 mph 4.6 mph 39 % 0.00 in
10:52 69.0 °F 42.3 °F 30.16 in ENE 1.7 mph 3.5 mph 38 % 0.00 in
10:57 69.0 °F 42.3 °F 30.16 in ENE 3.5 mph 5.0 mph 38 % 0.00 in
11:02 68.4 °F 41.1 °F 30.16 in ENE 3.1 mph 4.6 mph 37 % 0.00 in
11:07 68.5 °F 42.6 °F 30.16 in ENE 3.5 mph 4.6 mph 39 % 0.00 in
11:12 69.2 °F 45.7 °F 30.16 in ENE 1.6 mph 3.5 mph 43 % 0.00 in
11:17 69.5 °F 44.1 °F 30.16 in ENE 2.5 mph 4.6 mph 40 % 0.00 in
11:22 70.1 °F 42.6 °F 30.16 in ENE 4.4 mph 8.0 mph 37 % 0.00 in
11:27 69.8 °F 43.0 °F 30.16 in ENE 2.7 mph 4.6 mph 38 % 0.00 in
11:32 69.7 °F 41.5 °F 30.16 in East 4.2 mph 8.1 mph 36 % 0.00 in
11:38 69.1 °F 42.4 °F 30.16 in NE 2.1 mph 6.9 mph 38 % 0.00 in
11:39 69.1 °F 42.4 °F 30.16 in ENE 3.1 mph 8.1 mph 38 % 0.00 in
11:50 69.7 °F 45.6 °F 30.15 in ENE 1.4 mph 4.0 mph 42 % 0.00 in
11:55 70.2 °F 44.1 °F 30.15 in NE 2.0 mph 4.6 mph 39 % 0.00 in
12:00 70.6 °F 44.4 °F 30.16 in ENE 0.9 mph 6.9 mph 39 % 0.00 in
12:05 70.8 °F 43.2 °F 30.15 in ENE 3.7 mph 5.0 mph 37 % 0.00 in
12:10 71.1 °F 42.8 °F 30.15 in ESE 2.0 mph 5.8 mph 36 % 0.00 in
12:15 71.4 °F 44.5 °F 30.15 in NNE 1.8 mph 3.5 mph 38 % 0.00 in
12:20 71.7 °F 43.3 °F 30.14 in ENE 2.2 mph 3.5 mph 36 % 0.00 in
12:25 72.4 °F 41.7 °F 30.14 in ENE 3.7 mph 4.6 mph 33 % 0.00 in
12:30 71.7 °F 44.0 °F 30.14 in ENE 3.1 mph 6.9 mph 37 % 0.00 in
12:35 71.9 °F 41.2 °F 30.14 in ENE 2.2 mph 3.5 mph 33 % 0.00 in
12:41 72.1 °F 42.9 °F 30.14 in ENE 2.4 mph 4.6 mph 35 % 0.00 in
12:46 71.8 °F 41.9 °F 30.14 in NE 4.2 mph 5.8 mph 34 % 0.00 in
12:51 71.7 °F 41.0 °F 30.14 in ENE 1.1 mph 3.5 mph 33 % 0.00 in
12:56 72.0 °F 42.1 °F 30.14 in ENE 2.7 mph 4.0 mph 34 % 0.00 in
13:01 72.1 °F 41.4 °F 30.13 in ENE 1.3 mph 3.5 mph 33 % 0.00 in
13:06 72.8 °F 45.7 °F 30.13 in NNE 2.4 mph 3.5 mph 38 % 0.00 in
13:11 73.8 °F 46.6 °F 30.13 in ENE 2.2 mph 3.5 mph 38 % 0.00 in
13:16 74.3 °F 42.5 °F 30.13 in North 3.5 mph 4.0 mph 32 % 0.00 in
13:21 74.5 °F 45.8 °F 30.13 in North 2.9 mph 4.0 mph 36 % 0.00 in
13:26 75.2 °F 45.7 °F 30.12 in ENE 1.2 mph 4.0 mph 35 % 0.00 in
13:32 74.9 °F 44.6 °F 30.12 in ENE 3.0 mph 4.0 mph 34 % 0.00 in
13:37 75.2 °F 46.4 °F 30.12 in NNE 3.5 mph 5.8 mph 36 % 0.00 in
13:42 76.1 °F 47.2 °F 30.12 in North 4.4 mph 6.0 mph 36 % 0.00 in
13:47 76.9 °F 42.2 °F 30.11 in NNW 3.5 mph 4.6 mph 29 % 0.00 in
13:52 77.3 °F 42.6 °F 30.11 in NNE 2.8 mph 5.0 mph 29 % 0.00 in
13:57 77.6 °F 43.7 °F 30.11 in North 3.6 mph 6.0 mph 30 % 0.00 in
14:02 77.4 °F 41.7 °F 30.11 in NW 2.1 mph 3.5 mph 28 % 0.00 in
14:07 77.2 °F 43.4 °F 30.11 in North 2.4 mph 4.0 mph 30 % 0.00 in
14:12 77.0 °F 43.2 °F 30.11 in NNW 1.5 mph 3.5 mph 30 % 0.00 in
14:17 76.9 °F 45.6 °F 30.10 in NW 1.2 mph 2.3 mph 33 % 0.00 in
14:23 76.9 °F 44.8 °F 30.10 in NNW 0.8 mph 3.5 mph 32 % 0.00 in
14:28 77.0 °F 44.0 °F 30.10 in NNW 2.6 mph 3.5 mph 31 % 0.00 in
14:33 76.9 °F 41.3 °F 30.10 in WNW 1.1 mph 3.5 mph 28 % 0.00 in
14:38 76.5 °F 42.7 °F 30.10 in NNW 0.9 mph 3.0 mph 30 % 0.00 in
14:43 76.4 °F 43.5 °F 30.10 in NNW 1.1 mph 3.5 mph 31 % 0.00 in
14:48 76.6 °F 44.5 °F 30.10 in NNW 2.1 mph 3.5 mph 32 % 0.00 in
14:53 77.2 °F 46.7 °F 30.09 in North 1.7 mph 3.5 mph 34 % 0.00 in
14:58 77.5 °F 42.7 °F 30.09 in North 0.3 mph 3.5 mph 29 % 0.00 in
15:03 77.3 °F 45.1 °F 30.09 in SSE 0.7 mph 3.5 mph 32 % 0.00 in
15:08 76.9 °F 44.0 °F 30.09 in ENE 2.1 mph 3.5 mph 31 % 0.00 in
15:13 76.2 °F 45.0 °F 30.08 in North 1.9 mph 4.0 mph 33 % 0.00 in
15:19 76.1 °F 45.7 °F 30.08 in North 3.1 mph 4.6 mph 34 % 0.00 in
15:24 76.2 °F 43.3 °F 30.08 in NW 1.3 mph 3.5 mph 31 % 0.00 in
15:29 76.6 °F 43.7 °F 30.08 in North 1.6 mph 3.5 mph 31 % 0.00 in
15:34 77.1 °F 43.3 °F 30.08 in North 1.5 mph 2.3 mph 30 % 0.00 in
15:39 77.5 °F 46.1 °F 30.07 in NW 2.5 mph 3.5 mph 33 % 0.00 in
15:44 77.9 °F 44.8 °F 30.07 in SW 4.7 mph 6.9 mph 31 % 0.00 in
15:49 78.1 °F 47.4 °F 30.07 in WSW 0.2 mph 1.2 mph 34 % 0.00 in
15:54 78.3 °F 44.3 °F 30.07 in West 1.0 mph 8.1 mph 30 % 0.00 in
16:04 78.7 °F 44.7 °F 30.07 in NNE 3.1 mph 10.4 mph 30 % 0.00 in
16:10 78.7 °F 43.8 °F 30.07 in SSW 5.6 mph 9.2 mph 29 % 0.00 in
16:15 78.7 °F 42.8 °F 30.07 in South 0.7 mph 3.5 mph 28 % 0.00 in
16:20 78.6 °F 43.7 °F 30.07 in WSW 2.6 mph 5.0 mph 29 % 0.00 in
16:25 78.2 °F 44.2 °F 30.07 in South 0.8 mph 2.3 mph 30 % 0.00 in
16:30 77.7 °F 42.0 °F 30.07 in SW 1.1 mph 3.0 mph 28 % 0.00 in
16:35 77.1 °F 42.4 °F 30.07 in SW 4.6 mph 8.1 mph 29 % 0.00 in
16:40 76.5 °F 41.9 °F 30.07 in South 1.0 mph 2.3 mph 29 % 0.00 in
16:45 76.2 °F 43.3 °F 30.07 in WSW 0.4 mph 4.6 mph 31 % 0.00 in
16:50 75.8 °F 42.1 °F 30.07 in WSW 4.3 mph 6.9 mph 30 % 0.00 in
17:01 75.6 °F 41.1 °F 30.06 in SSE 2.6 mph 3.0 mph 29 % 0.00 in
17:06 75.5 °F 41.0 °F 30.06 in SW 1.6 mph 4.0 mph 29 % 0.00 in
17:11 75.4 °F 42.7 °F 30.06 in SW 2.7 mph 4.6 mph 31 % 0.00 in
17:21 75.2 °F 40.7 °F 30.06 in SSW 4.7 mph 9.2 mph 29 % 0.00 in
17:26 75.0 °F 40.6 °F 30.06 in SSW 1.9 mph 4.6 mph 29 % 0.00 in
17:31 74.7 °F 40.3 °F 30.07 in SSW 5.2 mph 6.9 mph 29 % 0.00 in
17:36 74.3 °F 40.0 °F 30.07 in SSW 3.7 mph 6.9 mph 29 % 0.00 in
17:41 73.9 °F 40.5 °F 30.07 in SSW 4.0 mph 6.9 mph 30 % 0.00 in
17:47 73.5 °F 41.0 °F 30.07 in SSW 3.5 mph 5.0 mph 31 % 0.00 in
17:52 73.1 °F 40.7 °F 30.07 in SSW 3.8 mph 8.1 mph 31 % 0.00 in
17:57 72.8 °F 40.4 °F 30.07 in SSW 5.6 mph 9.2 mph 31 % 0.00 in
18:07 72.4 °F 40.9 °F 30.07 in SW 1.1 mph 3.5 mph 32 % 0.00 in
18:12 72.2 °F 41.5 °F 30.06 in SSW 1.8 mph 3.5 mph 33 % 0.00 in
18:17 72.0 °F 41.3 °F 30.06 in SSW 2.0 mph 4.0 mph 33 % 0.00 in
18:22 71.8 °F 41.1 °F 30.06 in South 2.8 mph 4.0 mph 33 % 0.00 in
18:27 71.5 °F 41.6 °F 30.06 in SSW 1.1 mph 3.5 mph 34 % 0.00 in
18:32 71.2 °F 41.4 °F 30.06 in South 1.0 mph 4.0 mph 34 % 0.00 in
18:43 70.6 °F 40.9 °F 30.06 in SW 2.2 mph 4.0 mph 34 % 0.00 in
18:48 70.2 °F 41.3 °F 30.06 in SSW 2.5 mph 6.9 mph 35 % 0.00 in
18:53 69.9 °F 41.0 °F 30.06 in SSW 3.1 mph 4.6 mph 35 % 0.00 in
18:58 69.6 °F 40.7 °F 30.06 in SW 1.9 mph 4.6 mph 35 % 0.00 in
19:08 69.2 °F 41.1 °F 30.06 in SW 1.6 mph 3.5 mph 36 % 0.00 in
19:13 69.0 °F 40.9 °F 30.07 in SSW 1.3 mph 4.0 mph 36 % 0.00 in
19:18 68.7 °F 40.7 °F 30.07 in SSW 3.1 mph 4.0 mph 36 % 0.00 in
19:23 68.4 °F 40.4 °F 30.07 in SSW 3.0 mph 5.8 mph 36 % 0.00 in
19:29 68.1 °F 40.8 °F 30.07 in SW 2.1 mph 3.5 mph 37 % 0.00 in
19:34 67.9 °F 40.7 °F 30.07 in SSW 3.0 mph 4.0 mph 37 % 0.00 in
19:39 67.6 °F 40.4 °F 30.07 in SW 2.3 mph 5.8 mph 37 % 0.00 in
19:44 67.3 °F 40.1 °F 30.07 in SW 1.1 mph 3.5 mph 37 % 0.00 in
19:49 67.1 °F 40.6 °F 30.07 in SSW 2.1 mph 3.5 mph 38 % 0.00 in
19:54 66.7 °F 39.6 °F 30.07 in SSW 1.7 mph 3.5 mph 37 % 0.00 in
19:59 66.3 °F 39.9 °F 30.07 in South 1.5 mph 6.9 mph 38 % 0.00 in
20:04 66.0 °F 39.0 °F 30.07 in SSW 2.4 mph 4.6 mph 37 % 0.00 in
20:09 65.6 °F 38.6 °F 30.07 in SW 2.5 mph 4.6 mph 37 % 0.00 in
20:14 65.3 °F 39.0 °F 30.07 in SW 2.1 mph 3.5 mph 38 % 0.00 in
20:20 65.0 °F 38.8 °F 30.07 in SW 2.0 mph 3.5 mph 38 % 0.00 in
20:25 64.7 °F 38.5 °F 30.07 in WSW 3.3 mph 5.8 mph 38 % 0.00 in
20:30 64.4 °F 38.9 °F 30.07 in SSW 2.1 mph 3.5 mph 39 % 0.00 in
20:35 64.1 °F 38.6 °F 30.07 in SSW 2.1 mph 3.5 mph 39 % 0.00 in
20:40 63.9 °F 39.1 °F 30.07 in SW 3.4 mph 5.0 mph 40 % 0.00 in
20:45 63.6 °F 38.8 °F 30.07 in SW 2.2 mph 3.5 mph 40 % 0.00 in
20:50 63.4 °F 38.6 °F 30.08 in SW 1.3 mph 3.0 mph 40 % 0.00 in
20:55 63.1 °F 38.4 °F 30.07 in SSW 2.7 mph 3.5 mph 40 % 0.00 in
21:00 63.0 °F 38.3 °F 30.08 in SSW 2.0 mph 4.6 mph 40 % 0.00 in
21:05 62.7 °F 38.0 °F 30.07 in SW 2.4 mph 3.5 mph 40 % 0.00 in
21:11 62.6 °F 37.9 °F 30.08 in SW 1.2 mph 3.5 mph 40 % 0.00 in
21:16 62.5 °F 37.8 °F 30.08 in SW 1.8 mph 3.5 mph 40 % 0.00 in
21:21 62.3 °F 38.3 °F 30.08 in SW 1.6 mph 3.5 mph 41 % 0.00 in
21:26 62.2 °F 38.2 °F 30.08 in WSW 2.7 mph 4.6 mph 41 % 0.00 in
21:31 62.1 °F 38.1 °F 30.08 in SW 2.0 mph 3.5 mph 41 % 0.00 in
21:41 61.9 °F 39.1 °F 30.08 in WSW 2.0 mph 3.5 mph 43 % 0.00 in
21:46 61.8 °F 40.2 °F 30.08 in WSW 3.3 mph 6.9 mph 45 % 0.00 in
21:51 61.8 °F 40.8 °F 30.08 in SW 4.7 mph 8.1 mph 46 % 0.00 in
21:56 61.8 °F 41.3 °F 30.08 in WSW 4.0 mph 6.9 mph 47 % 0.00 in
22:02 61.8 °F 41.9 °F 30.08 in SW 2.0 mph 3.5 mph 48 % 0.00 in
22:07 61.8 °F 41.9 °F 30.08 in WSW 3.7 mph 6.9 mph 48 % 0.00 in
22:12 61.7 °F 42.3 °F 30.08 in SW 2.5 mph 3.5 mph 49 % 0.00 in
22:17 61.6 °F 42.2 °F 30.09 in SW 2.0 mph 4.6 mph 49 % 0.00 in
22:22 61.6 °F 42.8 °F 30.09 in WSW 1.0 mph 3.5 mph 50 % 0.00 in
22:27 61.6 °F 43.3 °F 30.09 in WSW 1.0 mph 2.3 mph 51 % 0.00 in
22:32 61.5 °F 43.2 °F 30.09 in WSW 0.7 mph 3.0 mph 51 % 0.00 in
22:37 61.4 °F 43.6 °F 30.09 in SW 1.8 mph 3.5 mph 52 % 0.00 in
22:42 61.3 °F 44.0 °F 30.09 in WSW 2.5 mph 3.5 mph 53 % 0.00 in
22:47 61.2 °F 43.9 °F 30.09 in SW 1.9 mph 3.5 mph 53 % 0.00 in
22:53 61.0 °F 44.7 °F 30.09 in SW 3.0 mph 3.5 mph 55 % 0.00 in
22:58 60.9 °F 44.6 °F 30.09 in WSW 1.9 mph 3.5 mph 55 % 0.00 in
23:03 60.8 °F 45.0 °F 30.09 in WSW 2.5 mph 3.5 mph 56 % 0.00 in
23:08 60.7 °F 45.8 °F 30.09 in WSW 1.3 mph 3.5 mph 58 % 0.00 in
23:13 60.6 °F 45.7 °F 30.09 in SW 1.6 mph 3.5 mph 58 % 0.00 in
23:18 60.5 °F 46.1 °F 30.09 in WSW 1.1 mph 3.0 mph 59 % 0.00 in
23:23 60.4 °F 46.4 °F 30.09 in WSW 1.1 mph 3.5 mph 60 % 0.00 in
23:28 60.3 °F 46.8 °F 30.09 in WSW 1.2 mph 2.3 mph 61 % 0.00 in
23:33 60.2 °F 46.7 °F 30.09 in WSW 0.6 mph 1.2 mph 61 % 0.00 in
23:38 60.0 °F 46.9 °F 30.09 in WSW 1.1 mph 3.5 mph 62 % 0.00 in
23:49 59.6 °F 47.0 °F 30.09 in Calm   1.2 mph 63 % 0.00 in
23:54 59.3 °F 47.1 °F 30.09 in Calm     64 % 0.00 in
23:59 59.0 °F 46.8 °F 30.09 in Calm     64 % 0.00 in
Crab Meadow Weather
Compliments of Weather Underground - 2.75 mb

Script developed by  Jim McMurry - jmcmurry@mwt.net Adapted for the template by  Wim van der Kuil - Leuven-Template.eu

Weather Terms: Winter Storm Watch - Conditions are favorable for hazardous winter weather conditions including heavy snow, blizzard conditions, or significant accumulations of freezing rain or sleet. These watches are issued by the Weather Service Forecast Office in Upton and are usually issued 12 to 36 hours in advance of the event.